Reno, NV

2:31 AM PST on December 13, 2019 (GMT -0800)
Reno-Tahoe International

Weather History for KRNO - August, 2019

Change the Weather History Date:

Wednesday, August 21, 2019

  Actual Average Record
Temperature  
Mean Temperature 78 °F 72 °F  
Max Temperature 93 °F 90 °F 100 °F (1982)
Min Temperature 61 °F 55 °F 34 °F (1968)
Degree Days  
Heating Degree Days 0 0  
Month to date heating degree days 0 0  
Since 1 June heating degree days 15 61  
Since 1 July heating degree days 0 5  
Cooling Degree Days 12 7  
Month to date cooling degree days 263 195  
Year to date cooling degree days 854 682  
Since 1 June cooling degree days 840 645  
Growing Degree Days 28 (Base 50)    
Moisture  
Dew Point 32 °F    
Average Humidity 22    
Maximum Humidity 40    
Minimum Humidity 8    
Precipitation  
Precipitation 0.00 in 0.00 in 0.51 in (2003)
Month to date precipitation T 0.17  
Year to date precipitation 8.76 4.63  
Snow  
Snow 0.00 in 0.00 in 0.00 in ()
Month to date snowfall 0.0 0.0  
Since 1 June snowfall 0.0 T  
Since 1 July snowfall 0.0 0.0  
Snow Depth 0.00 in    
Sea Level Pressure  
Sea Level Pressure 29.89 in    
Wind  
Wind Speed 6 mph ()    
Max Wind Speed 25 mph    
Max Gust Speed 31 mph    
Visibility 10.0 miles    
Events      
T = Trace of Precipitation, MM = Missing Value Source: Averaged Metar Reports

Daily Weather History Graph

Daily Weather History Graph

Search for Another Location

Airport or City:

Astronomy

Aug. 21, 2019 Rise Set
Actual Time 6:17 AM PDT 7:46 PM PDT
Civil Twilight 5:48 AM PDT 8:14 PM PDT
Nautical Twilight 5:14 AM PDT 8:48 PM PDT
Astronomical Twilight 4:38 AM PDT 9:24 PM PDT
Moon 11:08 PM PDT (8/21) 11:56 AM PDT (8/21)
Length of Visible Light 14h 26m
Length of Day
13h 29m
Waning Gibbous, 68% of the Moon is Illuminated
Aug 21
Waning Gibbous
Aug 23
Last Quarter
Aug 30
New
Sep 5
First Quarter
Sep 13
Full

Hourly Weather History & Observations

Time (PDT) Temp. Dew Point Humidity Pressure Visibility Wind Dir Wind Speed Gust Speed Precip Events Conditions
12:55 AM 73.0 °F 37.0 °F 27% 29.95 in 10.0 mi West 8.1 mph - N/A   Scattered Clouds
1:55 AM 71.1 °F 39.0 °F 31% 29.94 in 10.0 mi West 5.8 mph - N/A   Partly Cloudy
2:55 AM 69.1 °F 37.0 °F 31% 29.94 in 10.0 mi Calm Calm - N/A   Partly Cloudy
3:55 AM 66.0 °F 37.0 °F 34% 29.94 in 10.0 mi West 5.8 mph - N/A   Partly Cloudy
4:55 AM 64.0 °F 37.0 °F 37% 29.95 in 10.0 mi West 8.1 mph - N/A   Scattered Clouds
5:55 AM 62.1 °F 35.1 °F 37% 29.96 in 10.0 mi West 6.9 mph - N/A   Scattered Clouds
6:55 AM 62.1 °F 35.1 °F 37% 29.98 in 10.0 mi WNW 4.6 mph - N/A   Scattered Clouds
7:55 AM 64.0 °F 39.0 °F 40% 29.99 in 10.0 mi Calm Calm - N/A   Scattered Clouds
8:55 AM 70.0 °F 37.9 °F 31% 29.98 in 10.0 mi Calm Calm - N/A   Scattered Clouds
9:55 AM 75.0 °F 37.9 °F 26% 29.96 in 10.0 mi Calm Calm - N/A   Scattered Clouds
10:55 AM 79.0 °F 36.0 °F 21% 29.94 in 10.0 mi East 4.6 mph - N/A   Scattered Clouds
11:55 AM 82.9 °F 26.1 °F 13% 29.90 in 10.0 mi Calm Calm - N/A   Scattered Clouds
12:55 PM 88.0 °F 21.0 °F 9% 29.86 in 10.0 mi Variable 3.5 mph - N/A   Scattered Clouds
1:55 PM 93.0 °F 25.0 °F 9% 29.83 in 10.0 mi Variable 3.5 mph - N/A   Mostly Cloudy
2:55 PM 91.9 °F 28.0 °F 10% 29.81 in 10.0 mi SW 8.1 mph - N/A   Mostly Cloudy
3:55 PM 93.0 °F 28.0 °F 10% 29.79 in 10.0 mi West 12.7 mph - N/A   Mostly Cloudy
4:55 PM 89.1 °F 26.1 °F 10% 29.80 in 10.0 mi West 20.7 mph - N/A   Mostly Cloudy
5:55 PM 86.0 °F 27.0 °F 12% 29.80 in 10.0 mi WNW 20.7 mph - N/A   Mostly Cloudy
6:55 PM 84.9 °F 24.1 °F 11% 29.81 in 10.0 mi WNW 20.7 mph 27.6 mph N/A   Mostly Cloudy
7:55 PM 81.0 °F 32.0 °F 17% 29.83 in 10.0 mi West 18.4 mph 27.6 mph N/A   Mostly Cloudy
8:55 PM 79.0 °F 30.9 °F 17% 29.83 in 10.0 mi North 10.4 mph - N/A   Mostly Cloudy
9:55 PM 77.0 °F 37.0 °F 24% 29.84 in 10.0 mi WNW 12.7 mph 21.9 mph N/A   Mostly Cloudy
10:55 PM 75.0 °F 35.1 °F 23% 29.83 in 10.0 mi WNW 12.7 mph - N/A   Scattered Clouds
11:55 PM 72.0 °F 30.0 °F 21% 29.83 in 10.0 mi NNE 6.9 mph - N/A   Scattered Clouds